Powrót do katalogu

STARLINK-36943

AktywnyŁącznośćSSO
NORAD 68035·PAYLOAD·🇺🇸 United States

Wystrzelony Mar 1, 2026 z Vandenberg Space Force Base

Loading…

Następne Przeloty (najbliższe 24 godziny)

TLE

ŚwieżeSource: CelesTrak SupGP

Epoka: Sep 14, 2026, 22:41 UTC

1 68035C 26040W   26257.94562500 -.00057847  00000+0 -17959-2 0  2579
2 68035  97.2853 205.4192 0001832  85.7846 149.6126 15.33464039    11

Śledź STARLINK-36943 w czasie rzeczywistym z AllMySat

Download on the App Store